Weather History for Pompano Beach, FL

Change the Weather History Date:

Thursday, September 26, 2013

  Actual Average Record
Temperature  
Mean Temperature 84 °F -  
Max Temperature 90 °F 89 °F 95 °F (1980)
Min Temperature 77 °F 73 °F 65 °F (1977)
Cooling Degree Days 18    
Growing Degree Days 34 (Base 50)    
Moisture  
Dew Point 75 °F    
Average Humidity 82    
Maximum Humidity 94    
Minimum Humidity 59    
Precipitation  
Precipitation 0.15 in - - ()
Sea Level Pressure  
Sea Level Pressure 29.85 in    
Wind  
Wind Speed 7 mph (WSW)    
Max Wind Speed 20 mph    
Max Gust Speed 29 mph    
Visibility 10 miles    
Events Rain , Thunderstorm    
Averages and records for this station are not official NWS values.
T = Trace of Precipitation, MM = Missing Value Source: NWS Daily Summary

Daily Weather History Graph

Daily Weather History Graph

Search for Another Location

Airport:

Trip Planner

Search our weather history database for the weather conditions in past years. The results will help you decide how hot, cold, wet, or windy it might be!

Date:

Astronomy

Sep. 26, 2013 Rise Set
Actual Time 7:10 AM EDT 7:12 PM EDT
Civil Twilight 6:47 AM EDT 7:35 PM EDT
Nautical Twilight 6:20 AM EDT 8:01 PM EDT
Astronomical Twilight 5:54 AM EDT 8:28 PM EDT
Moon No Moon Rise 1:33 PM EDT
Length of Visible Light 12h 47m
Length of Day
12h 01m
Waning Gibbous, 55% of the Moon is Illuminated
Sep 26
Waning Gibbous
Sep 26
Last Quarter
Oct 4
New
Oct 11
First Quarter
Oct 18
Full

Hourly Weather History & Observations

Time (EDT) Temp. Heat Index Dew Point Humidity Pressure Visibility Wind Dir Wind Speed Gust Speed Precip Events Conditions
12:53 AM 78.1 °F - 73.9 °F 87% 29.86 in 10.0 mi SW 3.5 mph - N/A   Clear
1:53 AM 78.1 °F - 73.9 °F 87% 29.86 in 10.0 mi WSW 3.5 mph - N/A   Clear
2:53 AM 78.1 °F - 73.9 °F 87% 29.85 in 10.0 mi SW 4.6 mph - N/A   Clear
3:53 AM 77.0 °F - 75.0 °F 94% 29.84 in 10.0 mi WSW 5.8 mph - N/A   Clear
4:53 AM 77.0 °F - 75.0 °F 94% 29.83 in 10.0 mi SW 5.8 mph - N/A   Clear
5:53 AM 77.0 °F - 73.9 °F 90% 29.85 in 10.0 mi WSW 4.6 mph - N/A   Clear
6:53 AM 77.0 °F - 73.9 °F 90% 29.86 in 10.0 mi WSW 4.6 mph - N/A   Clear
7:53 AM 79.0 °F - 75.9 °F 90% 29.86 in 10.0 mi SW 5.8 mph - N/A   Clear
8:53 AM 82.0 °F 90.2 °F 77.0 °F 85% 29.87 in 10.0 mi WSW 10.4 mph - N/A   Clear
9:53 AM 84.9 °F 95.3 °F 77.0 °F 77% 29.88 in 10.0 mi WSW 11.5 mph 20.7 mph N/A   Mostly Cloudy
10:53 AM 87.1 °F 98.8 °F 77.0 °F 72% 29.88 in 10.0 mi WSW 12.7 mph - N/A   Unknown
11:53 AM 90.0 °F 99.0 °F 73.9 °F 59% 29.86 in 10.0 mi West 13.8 mph - N/A   Mostly Cloudy
12:53 PM 82.9 °F 92.8 °F 78.1 °F 85% 29.85 in 10.0 mi West 8.1 mph - 0.11 in   Scattered Clouds
1:53 PM 88.0 °F 98.5 °F 75.9 °F 67% 29.84 in 10.0 mi West 19.6 mph 28.8 mph 0.02 in Thunderstorm Thunderstorm
2:53 PM 86.0 °F 93.8 °F 73.9 °F 67% 29.82 in 10.0 mi West 18.4 mph - 0.00 in   Scattered Clouds
3:53 PM 80.1 °F 84.5 °F 73.9 °F 81% 29.84 in 6.0 mi West 11.5 mph - 0.02 in Rain Light Rain
4:53 PM 81.0 °F 87.3 °F 75.9 °F 85% 29.82 in 10.0 mi WNW 10.4 mph - 0.00 in   Scattered Clouds
5:53 PM 82.9 °F 90.8 °F 75.9 °F 79% 29.82 in 10.0 mi West 13.8 mph - N/A   Scattered Clouds
6:53 PM 82.9 °F 90.8 °F 75.9 °F 79% 29.82 in 10.0 mi West 8.1 mph - N/A   Scattered Clouds
7:53 PM 82.0 °F 89.4 °F 75.9 °F 82% 29.82 in 10.0 mi West 9.2 mph - N/A   Scattered Clouds
8:53 PM 81.0 °F 87.3 °F 75.9 °F 85% 29.83 in 10.0 mi West 8.1 mph - N/A   Unknown
9:53 PM 81.0 °F 87.3 °F 75.9 °F 85% 29.85 in 10.0 mi West 6.9 mph - N/A   Unknown
10:53 PM 81.0 °F 86.7 °F 75.0 °F 82% 29.85 in 10.0 mi West 6.9 mph - N/A   Unknown
11:53 PM 80.1 °F 85.4 °F 75.9 °F 87% 29.86 in 10.0 mi West 5.8 mph - N/A   Unknown